Temp
16 15 15 14 14 13 13 13 12 12 12 12 13 13 13 13 15 14 15 16 16 15 15 15 15 15 15 16 16 16 16 16 16 16 16 15 15 15 14 14 14 14 13
15 15 14 14 14 13 13 13 12 12 12 12 12 12 13 12 13 13 13 14 14 14 14 15 15 15 15 15 15 15 15 16 16 16 15 15 15 14 14 14 14 14 13
15 14 14 14 13 13 12 12 12 12 12 12 12 12 12 12 12 12 12 13 14 14 14 14 14 14 14 14 15 15 15 15 15 15 15 15 15 14 14 14 14 14 13
14 14 14 14 14 13 13 12 12 12 12 12 12 12 12 12 12 13 13 13 13 14 14 13 14 14 14 14 14 14 14 15 14 15 14 14 15 15 14 13 13 13 13
14 14 14 14 13 13 13 12 12 12 12 12 12 12 12 12 12 12 13 13 13 13 13 15 14 14 14 14 14 14 14 15 14 14 14 14 14 14 13 13 13 13 12
14 14 13 14 13 13 13 13 12 12 12 12 12 12 12 12 12 12 12 12 13 13 13 13 13 13 14 14 14 14 13 14 14 14 14 14 14 13 13 12 12 12 12
14 14 14 13 13 13 13 12 12 12 12 12 11 11 11 12 11 12 11 12 12 12 12 12 12 13 13 13 13 13 12 13 14 14 13 14 14 13 12 12 12 12 12
14 14 14 13 13 13 13 12 12 11 11 11 11 10 7 10 11 11 11 11 11 12 12 12 12 11 11 13 13 13 13 13 14 14 14 14 13 13 13 12 12 12 11
15 14 13 13 13 13 12 12 12 11 11 11 11 10 7 7 8 10 10 11 11 11 11 12 12 12 12 11 12 13 13 13 13 14 14 14 13 12 12 12 12 11 12
14 14 13 13 13 12 12 11 10 10 10 9 10 10 10 9 8 8 9 9 10 10 11 11 12 12 12 12 12 10 11 13 12 13 13 13 13 13 12 12 12 12 11
14 13 13 12 11 11 11 10 9 10 9 8 8 8 8 8 8 7 7 8 9 9 10 11 11 11 11 12 12 11 11 10 11 12 12 13 12 13 12 12 12 12 12
12 12 12 11 11 9 9 8 8 9 9 8 8 8 7 7 7 7 6 7 7 8 9 9 10 10 11 11 11 11 11 12 11 11 11 11 12 12 12 12 12 11 12
11 10 9 9 8 8 8 7 6 6 7 7 7 7 6 6 6 6 6 6 6 7 7 8 9 9 10 11 11 11 11 11 12 12 11 11 11 11 12 12 12 11 12
9 8 8 7 6 5 5 4 4 6 6 6 6 6 6 5 5 6 6 6 5 6 7 7 8 8 9 10 10 10 10 9 9 10 10 10 10 10 10 11 12 12 11
8 7 6 5 4 4 4 5 6 6 6 5 5 5 5 5 5 5 5 5 5 4 5 6 7 7 8 8 10 10 10 9 9 9 9 9 9 9 9 10 10 12 12
6 5 4 4 3 5 5 5 5 5 5 5 5 4 4 4 4 4 4 4 4 4 4 5 6 6 7 7 8 9 9 9 9 9 9 9 9 8 9 9 9 10 12
5 4 4 4 4 5 5 5 5 5 4 4 4 4 4 4 3 3 3 4 4 4 3 4 5 5 6 6 7 7 8 9 8 9 9 8 8 8 8 8 8 8 9
5 4 5 5 5 5 5 4 4 4 3 3 3 3 3 3 3 3 2 2 3 3 3 3 4 4 5 5 6 6 7 8 8 8 8 8 8 8 8 8 8 8 7
4 5 5 5 4 4 4 3 3 3 3 3 3 2 2 2 2 2 1 1 1 2 2 1 2 2 3 4 5 5 6 7 8 8 7 7 8 8 8 7 7 7 8
5 5 4 4 4 3 3 3 2 2 2 1 1 0 0 0 -0 -0 -1 -1 -1 -1 -0 0 1 1 1 2 3 4 5 6 7 7 7 7 7 7 7 8 7 6 6
5 4 4 3 3 3 2 2 1 0 -1 -1 -1 -1 -1 -1 -1 -1 -1 -1 -2 -2 -1 -1 -1 -0 1 1 2 3 3 5 6 7 7 6 6 6 7 7 7 6 5
4 3 3 3 2 2 1 0 -1 -2 -2 -3 -3 -3 -3 -3 -3 -3 -3 -3 -3 -3 -3 -2 -2 -1 -1 -0 -0 -0 -0 1 -1 5 5 6 5 5 6 6 5 3 4
3 2 2 1 1 -0 -1 -1 -2 -3 -3 -4 -4 -4 -4 -4 -4 -4 -4 -3 -3 -3 -3 -3 -3 -3 -2 -2 -1 -1 -1 -1 0 1 2 1 4 4 4 4 3 4 4
2 1 1 0 -1 -1 -2 -2 -3 -3 -4 -4 -4 -4 -4 -4 -4 -4 -4 -4 -4 -4 -3 -3 -3 -3 -3 -2 -2 -1 -1 -1 -1 -1 0 0 2 1 3 3 2 2 4
1 1 -0 -1 -2 -2 -3 -3 -4 -4 -4 -4 -4 -4 -4 -4 -4 -4 -3 -4 -4 -4 -4 -3 -3 -2 -2 -2 -2 -2 -2 -1 -1 -0 0 -0 -0 -0 1 2 2 1 2
-0 -1 -1 -2 -3 -3 -3 -4 -4 -4 -4 -4 -4 -4 -4 -4 -4 -3 -3 -3 -3 -3 -3 -3 -3 -3 -2 -2 -2 -2 -3 -3 -1 -1 -0 -1 -2 -2 -2 -1 0 0 1
Height
818 819 820 821 822 821 821 820 820 820 822 823 820 818 817 816 813 813 814 814 816 816 817 819 820 817 818 818 820 822 824 824 827 829 833 836 840 841 843 846 850 854 857
820 819 819 820 820 821 820 820 819 819 818 817 818 820 817 815 814 813 812 811 813 813 812 813 814 813 813 815 815 816 820 822 821 824 828 832 833 836 839 841 845 850 853
818 817 818 818 818 819 820 821 820 819 817 817 815 813 812 812 812 810 811 809 806 807 806 809 808 805 806 809 809 811 815 818 819 819 823 824 827 831 833 835 840 844 849
816 817 817 816 816 816 817 818 818 818 817 815 813 811 811 811 809 808 806 804 803 803 799 799 798 800 799 803 803 806 808 811 814 816 819 820 822 824 828 829 833 839 843
813 814 814 815 815 815 815 814 815 815 814 814 812 810 808 806 805 803 801 800 798 797 795 794 793 794 794 795 798 800 804 803 807 809 812 818 819 818 820 823 826 833 838
811 812 812 812 813 813 812 812 811 811 811 809 809 807 806 803 801 800 797 794 794 793 791 789 787 787 787 790 793 792 797 796 800 801 804 808 813 814 814 816 819 826 831
808 809 810 811 811 810 810 810 809 809 807 807 805 803 801 801 799 797 794 792 791 790 788 785 783 782 782 783 784 786 793 791 795 795 794 797 803 806 807 810 812 819 826
804 805 806 807 807 806 807 807 807 807 806 804 803 801 799 795 795 793 790 788 786 787 785 783 781 779 778 779 777 781 785 784 786 787 790 790 792 795 798 802 805 811 818
798 799 801 803 804 804 804 804 805 805 805 804 802 802 799 796 792 789 787 787 785 783 782 781 777 777 775 772 774 774 776 776 778 780 781 784 784 782 794 797 800 804 810
794 795 797 799 800 800 801 801 801 801 803 802 801 800 798 795 792 783 782 783 782 779 778 776 774 773 771 771 770 768 770 771 771 773 774 776 779 782 785 790 795 799 804
789 792 793 794 795 796 796 799 798 797 798 798 799 797 794 792 790 787 776 776 777 776 773 772 771 770 767 768 766 766 764 764 766 767 768 770 773 775 775 782 787 792 797
785 786 786 790 791 792 794 795 795 795 796 796 795 793 791 789 787 784 778 775 771 769 769 768 766 764 763 763 762 761 760 760 760 762 762 763 765 769 771 772 778 785 790
780 783 787 789 790 788 787 789 791 794 794 792 791 787 786 784 782 780 776 771 767 764 762 761 760 759 757 756 756 756 756 756 756 756 756 757 758 759 757 760 767 772 780
776 779 781 783 786 785 785 790 794 790 789 786 785 782 779 778 777 775 773 771 762 759 758 756 758 756 753 752 751 751 751 751 751 751 749 750 752 752 756 753 755 762 770
773 775 776 782 783 783 788 788 786 784 783 781 777 775 773 771 770 769 768 767 764 755 748 750 751 751 750 749 747 746 746 746 746 744 743 745 746 746 747 748 748 744 752
771 773 777 781 784 783 783 783 780 778 775 773 770 768 766 765 764 763 762 760 758 753 743 746 746 746 744 743 742 742 741 741 739 739 738 740 739 739 742 741 742 742 736
770 774 776 778 778 778 777 775 773 771 768 766 764 762 759 758 756 755 754 753 750 749 741 739 739 739 738 738 738 738 736 735 735 735 734 734 734 734 738 737 735 735 733
770 772 774 774 773 771 770 769 766 764 762 759 757 755 752 751 748 748 747 745 744 743 739 728 733 731 729 729 729 728 729 728 728 729 728 727 729 731 728 727 727 728 731
768 768 769 767 767 766 764 762 760 757 755 751 749 747 744 743 741 740 738 738 737 735 732 725 723 725 724 724 722 720 719 719 718 720 721 721 722 721 722 723 724 725 725
765 765 764 763 761 760 758 755 753 750 746 744 742 741 739 737 735 733 732 730 730 729 727 722 716 717 718 719 718 714 712 712 711 712 713 713 714 714 714 715 715 716 714
762 761 758 757 756 754 752 749 746 743 740 737 734 732 730 729 727 726 724 721 722 721 720 717 709 710 709 712 712 711 707 704 703 704 704 704 705 705 707 707 706 707 710
758 756 754 752 750 748 747 744 741 737 733 730 726 723 720 718 715 713 712 710 711 711 710 708 702 701 703 705 707 706 704 701 697 697 697 696 698 697 698 698 698 698 698
753 751 749 747 745 743 741 739 735 730 726 722 718 713 709 707 705 702 700 699 698 698 698 697 692 693 696 697 701 699 699 699 694 694 694 690 690 689 690 690 690 689 690
750 748 745 743 740 738 735 732 727 723 718 713 709 704 700 696 693 692 690 688 686 685 685 685 681 682 684 688 690 691 691 690 689 689 690 686 685 684 685 684 684 682 680
746 744 741 739 735 732 729 725 721 716 710 704 700 695 691 685 683 681 680 677 675 673 673 671 671 673 675 677 681 682 683 685 681 683 685 684 681 681 680 678 677 677 673
743 740 737 735 732 727 723 719 715 710 704 698 692 687 682 677 674 671 669 666 663 663 662 661 661 662 665 667 670 671 674 675 677 676 678 683 679 681 679 674 672 670 666
Wind_Speed
5 6 4 4 3 2 5 7 7 9 11 14 16 18 16 16 14 18 27 25 24 27 29 24 22 21 23 29 31 31 32 32 30 29 29 28 28 25 25 24 23 22 21
6 7 6 5 5 5 6 6 8 9 10 13 15 16 18 21 21 23 23 25 31 27 27 28 28 24 24 27 32 33 35 34 33 32 32 31 32 31 28 26 25 23 22
10 7 7 5 4 2 3 4 7 9 9 9 9 12 15 17 22 22 24 25 25 29 27 28 27 28 29 25 30 33 36 37 35 35 34 34 33 34 33 30 27 26 24
5 6 6 8 6 2 4 6 5 8 10 12 13 13 10 15 20 22 24 24 25 28 29 29 27 26 28 37 28 28 36 37 37 36 35 34 34 33 36 34 31 29 27
8 6 8 6 2 3 3 3 8 9 11 13 16 16 18 19 19 22 22 22 24 27 29 31 26 28 25 25 36 36 31 32 38 39 37 36 35 35 35 35 35 32 30
10 9 8 9 4 5 7 4 5 5 8 14 18 19 17 18 24 25 21 18 20 23 27 32 32 29 27 26 30 32 35 35 36 39 41 40 38 38 35 35 36 36 33
15 13 11 8 9 7 4 1 5 7 11 11 17 17 21 18 19 24 22 24 20 24 17 19 28 32 32 27 27 28 34 33 35 34 41 43 45 40 39 36 36 35 35
19 17 14 14 11 9 9 8 6 5 8 12 8 14 4 16 16 17 31 27 27 23 25 26 18 19 25 31 25 27 26 30 34 37 42 46 48 44 42 42 39 39 38
24 22 18 14 13 12 9 8 8 11 15 9 11 6 3 4 12 19 20 23 24 27 26 27 23 20 21 23 32 28 29 24 29 34 39 42 39 42 43 44 42 42 43
27 25 21 18 13 10 7 6 3 4 11 14 17 17 19 22 7 11 16 20 23 25 24 23 24 24 23 17 19 21 25 27 30 30 36 38 40 43 41 44 45 44 44
17 24 18 11 7 5 7 7 6 9 13 17 18 20 22 24 22 10 13 16 24 25 26 26 27 30 29 22 24 23 21 24 28 28 32 33 37 41 44 44 45 45 46
12 13 14 11 9 6 3 10 15 20 23 27 30 28 24 15 16 16 10 14 16 23 25 30 32 33 30 33 31 26 24 23 23 26 25 30 29 37 44 48 47 45 48
13 9 3 2 8 10 12 18 23 29 31 28 31 30 28 26 25 24 23 17 13 26 25 27 26 30 32 32 31 32 31 27 25 27 30 30 29 31 34 51 51 52 51
12 8 6 7 7 12 16 22 27 31 31 31 31 30 30 27 25 24 21 20 14 15 25 24 24 25 27 30 25 24 26 25 23 23 22 26 28 30 37 30 54 56 52
11 3 4 9 13 19 18 25 25 30 31 32 31 30 31 29 28 29 27 25 19 14 14 21 23 26 31 36 26 24 18 20 20 21 22 22 25 26 27 36 35 63 60
7 2 9 20 19 18 21 26 30 30 30 31 31 30 29 29 28 27 26 24 23 19 14 22 23 23 22 25 26 27 31 31 29 24 24 24 25 24 26 26 31 33 66
4 9 13 14 19 23 27 28 30 30 30 31 32 32 32 29 28 26 26 27 26 26 17 25 28 27 29 30 31 35 30 27 21 23 25 23 21 23 27 32 28 26 30
2 8 14 16 23 24 26 27 29 30 32 31 32 30 32 30 30 28 27 26 26 26 27 22 26 27 29 29 30 31 34 32 33 28 23 21 22 27 29 29 34 37 34
8 11 19 21 22 25 26 29 31 32 33 32 33 33 31 29 28 27 26 23 24 24 24 25 22 21 22 24 28 32 34 30 35 28 22 25 28 28 29 30 30 31 34
14 15 18 24 25 26 28 28 28 30 29 24 23 23 26 27 27 28 27 27 26 25 24 27 29 28 24 23 26 28 29 33 35 30 30 30 32 32 32 33 32 31 30
17 21 22 23 27 24 25 25 22 23 23 25 28 29 29 31 32 34 33 34 32 30 27 28 30 27 26 22 18 18 25 31 28 28 28 28 30 29 27 33 34 32 33
21 19 22 21 23 25 21 19 20 27 29 28 28 30 32 33 35 36 37 37 36 32 29 28 29 24 25 24 16 13 14 12 3 21 23 27 27 29 30 30 30 31 32
17 19 21 24 25 17 20 27 31 31 29 29 31 31 32 30 30 32 33 34 35 36 38 35 33 29 26 24 24 21 19 12 6 13 12 14 23 25 26 27 27 31 33
17 23 25 19 20 26 28 32 30 30 30 33 34 34 33 35 36 34 33 32 32 32 32 33 35 35 32 29 29 30 29 24 19 16 14 8 20 22 23 23 25 30 33
22 21 17 26 24 24 29 30 30 29 29 31 32 32 35 34 34 35 35 32 32 34 34 37 39 37 33 32 30 26 23 22 14 18 12 12 11 14 15 20 22 23 28
19 21 26 15 25 25 28 28 27 25 26 27 29 30 32 34 34 35 34 31 28 30 31 29 29 33 35 34 34 34 26 20 16 7 16 13 9 8 4 10 16 18 20
Wind_Direction
200 202 224 182 202 281 307 304 304 301 301 303 303 304 299 286 281 281 275 263 264 273 272 262 256 248 241 237 231 227 226 223 224 225 223 220 216 216 216 217 221 223 222
175 184 184 216 229 227 263 277 284 290 291 291 294 298 299 299 296 287 277 270 272 276 268 264 262 247 247 241 237 233 232 231 230 231 231 229 218 215 217 215 216 222 225
208 180 195 197 193 309 340 353 351 351 346 341 330 316 312 304 298 301 288 279 274 267 261 265 267 260 241 246 240 240 241 241 239 236 234 230 223 217 215 214 215 220 223
211 195 206 221 260 235 299 334 1 347 345 340 334 329 326 322 313 306 299 290 282 269 264 266 269 265 255 243 241 244 235 241 241 240 237 232 228 220 217 212 212 214 218
216 213 221 235 235 192 232 306 341 347 343 340 334 322 319 326 326 315 307 298 297 285 277 269 267 259 256 258 249 241 246 241 233 233 235 235 230 220 217 214 211 210 210
224 214 229 237 240 210 215 267 320 320 333 332 332 329 327 323 322 328 328 308 312 306 291 279 274 264 254 252 255 255 249 239 238 225 228 230 230 220 218 211 209 208 209
226 233 227 226 231 227 180 287 314 301 316 330 327 330 327 319 327 318 333 335 329 325 342 326 284 271 259 265 256 260 253 241 240 238 224 230 228 224 217 213 206 208 210
217 222 228 234 238 230 244 278 291 304 301 315 322 331 330 310 317 314 318 321 320 321 320 321 324 305 273 266 265 255 260 246 244 240 239 230 224 220 219 213 207 206 209
226 220 222 229 229 242 249 254 278 302 304 299 312 301 316 285 308 308 306 309 311 311 312 312 311 306 306 300 260 259 253 263 253 246 244 242 236 213 220 216 212 207 210
237 228 225 235 239 229 224 252 277 316 323 314 313 302 291 291 298 306 297 298 300 304 307 314 307 307 309 292 296 291 268 276 263 257 247 251 241 228 226 220 216 213 212
244 236 230 201 196 236 265 261 291 307 314 319 308 305 300 299 298 291 297 298 296 294 295 296 296 298 302 301 306 303 298 282 270 274 261 255 249 238 224 217 215 215 213
187 188 189 202 208 197 358 338 330 325 313 300 296 294 291 284 287 287 287 291 291 291 291 293 293 293 294 294 296 298 300 301 283 273 273 266 262 250 234 227 220 217 216
170 158 147 318 312 324 306 317 319 310 298 291 286 287 287 282 281 279 281 285 282 287 284 282 286 290 290 283 286 287 286 289 286 284 273 271 272 269 259 222 224 217 215
136 126 128 76 23 348 328 307 290 278 282 281 279 278 281 282 281 278 278 289 289 284 283 285 287 295 294 279 281 294 294 291 288 284 284 281 282 277 267 267 223 219 220
133 109 353 351 330 322 296 280 275 280 280 281 281 283 283 283 281 280 278 277 279 290 284 285 281 279 279 284 277 271 294 305 304 302 294 291 284 281 281 270 267 220 218
86 357 305 307 303 290 276 281 280 280 282 282 284 283 282 283 281 281 280 282 281 282 287 285 284 291 289 283 287 290 278 286 291 294 295 297 300 288 281 285 278 266 216
312 288 313 288 276 278 283 282 283 286 286 286 285 285 285 284 281 280 278 273 269 270 273 280 280 279 276 276 277 277 278 266 273 286 287 281 287 290 287 285 289 286 265
94 303 287 276 284 284 287 290 291 290 290 287 286 283 284 284 282 282 279 275 274 275 278 282 282 281 278 276 274 272 272 274 274 275 276 268 280 286 294 292 289 283 285
322 280 275 282 287 293 296 295 292 289 288 286 286 284 281 278 277 279 281 281 279 279 280 288 289 288 291 288 277 270 267 273 265 262 271 271 279 282 285 289 285 276 272
278 282 286 294 294 297 296 296 294 289 284 289 290 289 289 288 286 287 286 283 282 279 278 279 281 278 278 278 281 269 265 264 266 269 269 274 274 274 274 281 282 279 269
287 295 297 297 300 299 301 298 301 307 307 302 295 290 286 283 280 276 274 274 272 270 268 270 271 272 270 275 271 287 271 265 260 263 264 265 267 269 275 283 280 271 267
297 302 306 304 308 306 303 304 307 309 306 300 293 288 284 280 276 273 270 268 264 263 262 261 264 262 265 262 269 297 313 279 270 260 258 261 261 267 276 278 278 273 274
310 310 311 311 307 308 312 311 312 304 298 293 289 286 283 277 273 270 269 268 265 261 256 257 259 258 260 259 262 266 271 284 280 292 276 260 264 259 266 274 276 270 267
315 315 312 310 313 316 317 316 308 302 296 293 289 283 277 275 278 272 268 267 263 260 257 254 253 258 256 253 249 253 255 265 272 300 279 243 255 258 264 273 277 268 265
320 314 316 316 319 316 319 313 310 302 292 289 289 287 286 271 278 275 267 264 260 259 259 257 255 255 258 254 248 246 244 248 255 261 262 244 245 247 259 270 275 268 265
322 321 321 328 322 318 320 315 312 313 305 300 297 292 287 281 276 272 268 264 261 258 253 255 253 254 253 255 254 243 237 236 244 228 248 223 218 218 266 264 272 270 266